Regional Weather Roundup
Issued by NWS Cleveland, OH

Home | Current Version | Previous Version | Graphics & Text | Print | Product List | Glossary On
Versions: 1 2 3 4 5 6 7 8 9 10 11 12 13 14 15 16 17 18 19 20 21 22 23 24 25 26 27 28 29 30 31 32 33 34 35 36 37 38 39 40 41 42 43 44 45 46 47 48 49 50
000
ASUS41 KCLE 291002
RWRCLE
OHIO REGIONAL WEATHER ROUNDUP
NATIONAL WEATHER SERVICE CLEVELAND, OH
600 AM EDT SAT APR 29 2017

NOTE: "FAIR" INDICATES FEW OR NO CLOUDS BELOW 12,000 FEET WITH NO
SIGNIFICANT WEATHER AND/OR OBSTRUCTIONS TO VISIBILITY.

OHZ001>008-015>018-024>027-034-035-043-044-291100-
   NORTHWEST OHIO

CITY           SKY/WX    TMP DP  RH WIND       PRES   REMARKS
DEFIANCE       CLOUDY    53  52  96 E5        30.00R
FINDLAY        CLOUDY    57  53  86 NE8       29.98R
TOLEDO EXPRESS LGT RAIN  54  54 100 E3        30.00R FOG
TOLEDO EXEC    LGT RAIN  55  55 100 E3        30.02R FOG
LIMA           LGT RAIN  56  56 100 NE5       29.97S
$$

OHZ009>014-019>023-028>033-038-089-291100-
   NORTHEAST OHIO

CITY           SKY/WX    TMP DP  RH WIND       PRES   REMARKS
CLE-HOPKINS    CLOUDY    57  53  86 CALM      30.01R
CLE-LAKEFRONT  CLOUDY    56  54  93 CALM      29.99R FOG
CUY CO. ARPT   NOT AVBL
LORAIN-ELYRIA  CLOUDY    55  52  89 CALM      30.01R FOG
ASHTABULA      CLOUDY    55  55 100 CALM      30.00S
AKRON-CANTON   CLOUDY    56  52  86 W5        29.99R
WOOSTER        CLOUDY    55  53  93 NW3       29.99R
MANSFIELD      LGT RAIN  55  54  96 CALM      29.99R
YOUNGSTOWN     CLOUDY    53  51  93 E3        29.99F
$$

OHZ042-051>053-060>062-070>072-077>081-291100-
  SOUTHWEST OHIO

CITY           SKY/WX    TMP DP  RH WIND       PRES   REMARKS
CINC-COVINGTON CLOUDY    64  62  93 SW10G21   29.96R
CINC-LUNKEN    LGT RAIN  65  64  97 S16       29.95R
HAMILTON       CLOUDY    65  65 100 W8        29.97R
DAYTON         LGT RAIN  60  60 100 NE6       29.94F FOG
WRIGHT-PAT AFB NOT AVBL
DAYTON GENERAL CLOUDY    64  62  93 CALM      29.92R
WILMINGTON     LGT RAIN  64  63  96 SE17G24   29.89F
$$

OHZ036-037-039>041-045>050-054>059-063>069-073>076-082>088-291100-
  CENTRAL AND SOUTHEAST OHIO

CITY           SKY/WX    TMP DP  RH WIND       PRES   REMARKS
COLUMBUS       LGT RAIN  60  60 100 S8        29.98R FOG
OSU AIRPORT    RAIN      59  59 100 S5        29.99R FOG
BOLTON FIELD   LGT RAIN  58  58 100 CALM      29.99F
RICKENBACK AFB CLOUDY    59  60 100 SE9       29.98F
NEWARK         LGT RAIN  61  58  90 S8G18     29.99R
MARION         TSTM      57  55  93 SW3       30.00R FOG
LANCASTER      LGT RAIN  61  58  90 SE8       30.01R
ZANESVILLE     LGT RAIN  59  57  93 S12       30.04R
NEW PHILLY     NOT AVBL
$$




USA.gov is the U.S. government's official web portal to all federal, state and local government web resources and services.